Regional Weather Roundup
Issued by NWS

Home | Current Version | Previous Version | Text Only | Print | Product List | Glossary Off
Versions: 1 2 3 4 5 6 7 8 9 10 11 12 13 14 15 16 17 18 19 20 21 22 23 24 25 26 27 28 29 30 31 32 33 34 35 36 37 38 39 40 41 42 43 44 45 46 47 48 49 50

000
ASUS45 KPSR 181510
RWRAZ

ARIZONA REGIONAL HOURLY WEATHER ROUNDUP
NATIONAL WEATHER SERVICE PHOENIX AZ
800 AM MST THU DEC 18 2014

NOTE: FAIR INDICATES FEW OR NO CLOUDS BELOW 12,000 FEET WITH NO
SIGNIFICANT WEATHER AND/OR OBSTRUCTIONS TO VISIBILITY.

AZZ001>003-036-181600-
NORTHWEST ARIZONA

CITY           SKY/WX    TMP DP  RH WIND       PRES   REMARKS
BULLHEAD CITY  PTSUNNY   48  46  93 CALM      30.16R
KINGMAN        CLOUDY    39  37  92 SE5       30.13S
$$

AZZ004>008-015-016-018-181600-
NORTH CENTRAL ARIZONA

CITY           SKY/WX    TMP DP  RH WIND       PRES   REMARKS
GRAND CANYON   CLOUDY    29  28  96 CALM      30.11R
PRESCOTT       CLOUDY    35  31  85 SW3       30.12R
FLAGSTAFF      LGT SNOW  29  27  92 S3        30.10R VSB 3/4
PAYSON         DRIZZLE   36  34  93 CALM      30.14R
PAGE           CLOUDY    38  34  85 CALM      30.12R FOG
$$

AZZ009>014-017-181600-
NORTHEAST ARIZONA

CITY           SKY/WX    TMP DP  RH WIND       PRES   REMARKS
WINSLOW        CLOUDY    31  28  89 SE6       30.13R WCI  25
SAINT JOHNS    CLOUDY    30  29  96 N3        30.11S
WINDOW ROCK    CLOUDY    32  28  85 CALM      30.13S
SHOW LOW       CLOUDY    28  27  93 CALM      30.14R
$$

AZZ023-181600-
GREATER PHOENIX AREA

CITY           SKY/WX    TMP DP  RH WIND       PRES   REMARKS
PHOENIX        CLOUDY    52  47  83 CALM      30.10R
BUCKEYE          N/A     48  48 100 N5        30.13R
GLENDALE       CLOUDY    52  45  76 N5        30.13R
LUKE AFB       CLOUDY    48 N/A N/A N5        30.11S
DEER VALLEY    CLOUDY    49  44  83 N3        30.11R
SCOTTSDALE     CLOUDY    50  45  83 W3        30.12R
MESA-FALCON    CLOUDY    46  48 100 N7        30.10R
MESA-GATEWAY   PTSUNNY   46  46 100 VRB3      30.13R
CHANDLER       CLOUDY    50  48  93 CALM      30.12R
$$

AZZ027-028-181600-
SOUTHWEST MARICOPA COUNTY AND PINAL COUNTY

CITY           SKY/WX    TMP DP  RH WIND       PRES   REMARKS
CASA GRANDE    CLOUDY    48  45  87 CALM      30.11S
GILA BEND      PTSUNNY   47  46  95 E3        30.13R
$$

AZZ503-504-507>509-181600-
SOUTHEAST ARIZONA

CITY           SKY/WX    TMP DP  RH WIND       PRES   REMARKS
TUCSON         CLOUDY    49  46  90 S9        30.11S
DAVIS-MONTHAN  DRIZZLE   48  48 100 S5        30.09S
RYAN FIELD       N/A     50  50 100 E8        30.10F
NOGALES        CLOUDY    46  43  89 CALM      30.11S
SIERRA VISTA   CLOUDY    45  43  93 CALM      30.13R
DOUGLAS        CLOUDY    42  40  92 CALM      30.14R
SAFFORD        CLOUDY    43  41  93 E6        30.13S
$$

AZZ020-021-025-026-031-181600-
SOUTHWEST ARIZONA

CITY           SKY/WX    TMP DP  RH WIND       PRES   REMARKS
YUMA           PTSUNNY  N/A N/A N/A NE3       30.13R
$$

CAZ031-033-041-043-047-048-061-181600-
SOUTHERN CALIFORNIA

CITY           SKY/WX    TMP DP  RH WIND       PRES   REMARKS
DOWNTOWN L.A.  PTSUNNY   51  43  74 CALM      30.15R
L.A. AIRPORT   PTSUNNY   52  45  77 NE5       30.16R
SAN DIEGO      MOSUNNY   55  45  68 E3        30.18R
BURBANK        PTSUNNY   47  42  83 CALM      30.15R
ONTARIO        MOSUNNY   48  42  80 CALM      30.15R
RIVERSIDE      SUNNY     46  43  89 NE6       30.16R
PALM SPRINGS   SUNNY     49  41  74 NW3       30.15R
EL CENTRO NAS  MOSUNNY   42  39  89 W5        30.14R
IMPERIAL       SUNNY     45  40  82 W3        30.13R
BLYTHE         MOSUNNY   51  49  92 N6        30.14R
NEEDLES        SUNNY     47  43  86 CALM      30.15R
$$

NVZ020-UTZ003-181600-
SOUTHERN NEVADA-UTAH

CITY           SKY/WX    TMP DP  RH WIND       PRES   REMARKS
LAS VEGAS      PTSUNNY   46  41  82 S9        30.11R
SALT LAKE CITY CLOUDY    33  30  88 S5        30.12R WCI  29
$$

NMZ009-TXZ055-181600-
NEW MEXICO-WEST TEXAS

CITY           SKY/WX    TMP DP  RH WIND       PRES   REMARKS
ALBUQUERQUE    MOSUNNY   30  26  85 E7        30.15S WCI  23
EL PASO        MOSUNNY   38  32  79 E3        30.13S
$$


........................KEY........................
SKY/WX - SKY CONDITION/WEATHER
TMP    - TEMPERATURE IN FAHRENHEIT
DP     - DEW POINT IN FAHRENHEIT
RH     - RELATIVE HUMIDITY IN PERCENT
WIND   - DIRECTION AND SPEED IN MILES PER HOUR (MPH)
VRB    - VARIABLE WIND DIRECTION
PRES   - MEAN SEA LEVEL PRESSURE IN INCHES OF MERCURY
         F - FALLING PRESSURE   R - RISING PRESSURE
         S - STEADY PRESSURE
VSB    - VISIBILITY IN MILES
HX     - HEAT INDEX IN FAHRENHEIT
WCI    - WIND CHILL INDEX IN FAHRENHEIT
TC     - TEMPERATURE IN CELSIUS WHICH IS ALSO KNOWN AS
         TEMPERATURE IN CENTIGRADE
AFB    - AIR FORCE BASE
         LUKE AFB IS LUKE AIR FORCE BASE
         DAVIS-MONTHAN IS DAVIS-MONTHAN AIR FORCE BASE
NAS    - NAVAL AIR STATION
         EL CENTRO NAS IS EL CENTRO NAVAL AIR STATION
N/A    - NOT AVAILABLE


USA.gov is the U.S. government's official web portal to all federal, state and local government web resources and services.